DELTA 1 DEB, 12530

Orbit data source: Space-Track

DELTA 1 DEB, 12530 is space debris in SSO originally from a launch on Thu, 29 Jul 1976 UTC launched from the Air Force Western Test Range (AFWTR). Debris objects in space refer to the collection of defunct objects orbiting the Earth. Examples of debris include non-operational satellites, rocket bodies, and fragments generated from explosions, collisions, or faulty payload assembly.

Loading next visibility...
Identifier
12530, 1976-077DK
Orbit
SSO
Country
Flag of USUS
Related business
Manufacturer
Unknown
Mission
Spacecraft
Bus & Motor
Unknown
Mass
Unknown
Launch date (UTC)
1976-07-29 (50 years ago)
Launch vehicle
Unknown
Launch site
Air Force Western Test Range (AFWTR)
Object type
Payload
Rocket body
Debris
Shape & HBR
Unknown shape, 0.4 m
Radar Cross Section
Medium (>0.1 m² and <1 m²)

Expand to show TLE details & history
Last TLE update: 7 hours ago

TLE from 7 hours ago
0 DELTA 1 DEB
1 12530U 76077DK  26256.20492082 -.00000049  00000-0 -28521-4 0  9993
2 12530 102.5740 245.6724 0126463 162.7296 265.1286 12.27058138 93882
Epoch: 2026-09-13T04:55Z
TLE epoch observation values (Epoch: 2026-09-13T04:55:05.158Z)
Latitude
63.53045°
Longitude
153.22378°
Altitude
1,582.451 km
Speed
7.079 km/s
True Right ascension
14h 36m 47s
True Declination
63° 24' 26"
Sunlit
Object was in daylight at epoch
Visualization orbit readout
Latitude
Unknown
Longitude
Unknown
Altitude
Unknown
Speed
Unknown
Apparent Right ascension
Unknown
Apparent Declination
Unknown
Sunlit
N/A
Visualization observer readout
Local Sidereal Time
04:39:29
Azimuth
Unknown
Elevation
Unknown
Doppler factor
Unknown
Orbital elements
Apogee altitude
1,659.955 km
Perigee altitude
1,459.19 km
Semi-major axis
7,937.709 km
Eccentricity
0.01265
Inclination
102.574°
RAAN
245.6724°
Arg. of periapsis
162.7296°
True anomaly
263.68676°
Mean anomaly
265.1286°
Eccentric anomaly
264.40747°
Mean motion
3.06902 °/min
Orbital period
117.3 mins
BSTAR
-0.000028521
Loading maneuver chart data...
Computing Atmospheric mass density...
Loading historical data...
Loading historical data...
Loading historical data...
Loading historical data...
Loading historical data...
Loading historical data...
Loading historical data...

Documentation

Showing up to 5 results
|